Weather observations for the past three days for
Bolinder Field-Tooele Valley Airport
Imperial (Metric)
Date Time (mdt) Wind (mph) Vis. (mi.) Weather Sky Cond. Temperature (ºF) Relative Humidity Wind Chill (°F) Heat Index (°F) Pressure Precipitation (in)
Air Dwpt 6 hour altimeter (in) sea level (mb) 1 hr 3 hr 6 hr
Max. Min.
15 13:35 N 10 G 16 10.00 Fair CLR 89.6 44.6 21% 86 30.14 0.0
15 13:15 N 12 G 17 10.00 Fair CLR 87.8 46.4 24% 85 30.15 0.0
15 12:55 N 10 10.00 Fair CLR 87.8 46.4 24% 85 30.15 0.0
15 12:35 N 10 G 18 10.00 Fair CLR 87.8 46.4 24% 85 30.16 0.0
15 12:15 N 10 10.00 Fair CLR 87.8 44.6 22% 85 30.16 0.0
15 11:55 N 12 10.00 Fair CLR 87.8 44.6 22% 85 30.17 0.0
15 11:35 N 9 10.00 Fair CLR 87.8 44.6 22% 85 30.17 0.0
15 11:15 N 7 10.00 Fair CLR 86 46.4 25% 83 30.18 0.0
15 10:55 N 7 10.00 Fair CLR 86 44.6 24% 83 30.18 0.0
15 10:35 NW 6 10.00 Fair CLR 86 44.6 24% 83 30.18 0.0
15 10:15 NW 6 10.00 Fair CLR 86 44.6 24% 83 30.18 0.0
15 09:35 Calm 10.00 Fair CLR 82.4 42.8 25% 80 30.18 0.0
15 08:55 SW 5 10.00 Fair CLR 80.6 41 24% 79 30.18 0.0
15 08:35 S 9 10.00 Fair CLR 80.6 41 24% 79 30.18 0.0
15 08:15 S 6 10.00 Fair CLR 78.8 42.8 28% 78 30.17 0.0
15 07:55 S 6 10.00 Fair CLR 77 42.8 30% 78 30.17 0.0
15 07:35 S 5 10.00 Fair CLR 73.4 42.8 33% 30.16 0.0
15 06:55 S 8 10.00 Fair CLR 64.4 42.8 46% 30.15 0.0
15 06:35 S 7 10.00 Fair CLR 64.4 42.8 46% 30.15 0.0
15 06:15 SE 6 10.00 Fair CLR 68 42.8 40% 30.15 0.0
15 05:55 S 8 10.00 Fair CLR 62.6 42.8 49% 30.14 0.0
15 05:35 S 9 10.00 Fair CLR 64.4 44.6 49% 30.14 0.0
15 05:15 SE 7 10.00 Fair CLR 64.4 44.6 49% 30.14 0.0
15 04:55 SE 6 10.00 Fair CLR 64.4 44.6 49% 30.14 0.0
15 04:35 S 9 10.00 Fair CLR 64.4 44.6 49% 30.14 0.0
15 04:15 SE 7 10.00 Fair CLR 64.4 42.8 46% 30.14 0.0
15 03:55 S 7 10.00 Fair CLR 68 42.8 40% 30.15 0.0
15 03:35 S 6 10.00 Fair CLR 69.8 42.8 38% 30.15 0.0
15 03:15 S 7 10.00 Fair CLR 69.8 42.8 38% 30.15 0.0
15 02:55 SW 7 10.00 Fair CLR 69.8 42.8 38% 30.15 0.0
15 02:35 S 6 10.00 Fair CLR 71.6 42.8 36% 30.15 0.0
15 02:15 S 5 10.00 Fair CLR 77 42.8 30% 78 30.15 0.0
15 01:55 SW 7 10.00 Fair CLR 77 42.8 30% 78 30.17 0.0
15 01:35 S 9 10.00 Fair CLR 77 44.6 32% 78 30.17 0.0
15 01:15 SE 7 10.00 Fair CLR 77 44.6 32% 78 30.17 0.0
15 00:55 S 5 10.00 Fair CLR 73.4 42.8 33% 30.17 0.0
15 00:35 Calm 10.00 Fair CLR 77 42.8 30% 78 30.17 0.0
15 00:15 Calm 10.00 Fair CLR 78.8 42.8 28% 78 30.17 0.0
14 23:55 NW 3 10.00 Fair CLR 78.8 42.8 28% 78 30.17 0.0
14 23:35 NW 16 G 28 10.00 Fair CLR 80.6 42.8 26% 79 30.15 0.0
14 23:15 NW 28 G 40 4.00 Fair with Haze and Windy CLR 80.6 42.8 26% 79 30.11 0.0
14 22:55 NW 32 G 45 3.00 Partly Cloudy with Haze and Windy SCT003 82.4 44.6 26% 81 30.1 0.0
14 22:35 SW 7 10.00 Fair CLR 78.8 42.8 28% 78 30.05 0.0
14 22:15 S 6 10.00 Fair CLR 78.8 44.6 30% 79 30.04 0.0
14 21:55 SW 6 10.00 Fair CLR 80.6 44.6 28% 79 30.04 0.0
14 21:35 SW 12 10.00 Fair CLR 77 48.2 36% 78 30.03 0.0
14 21:15 NE 3 10.00 Fair CLR 84.2 51.8 33% 82 30.02 0.0
14 20:55 NW 3 10.00 Fair CLR 84.2 48.2 29% 82 30.02 0.0
14 20:35 NE 5 10.00 Fair CLR 87.8 48.2 25% 85 30.01 0.0
14 20:15 N 7 10.00 Fair CLR 91.4 46.4 21% 88 30.01 0.0
14 19:55 N 7 10.00 Fair CLR 93.2 39.2 15% 89 30.01 0.0
14 19:35 NE 9 10.00 Fair CLR 95 37.4 13% 90 30.01 0.0
14 19:15 NE 10 10.00 Fair CLR 96.8 37.4 13% 92 30.01 0.0
14 18:55 NE 12 10.00 Fair CLR 96.8 37.4 13% 92 30.01 0.0
14 18:35 N 7 10.00 Fair CLR 98.6 37.4 12% 94 30.02 0.0
14 18:15 N 6 10.00 Fair CLR 96.8 35.6 12% 92 30.02 0.0
14 17:55 NE 7 10.00 Fair CLR 96.8 35.6 12% 92 30.03 0.0
14 17:35 NE 7 10.00 Fair CLR 96.8 37.4 13% 92 30.04 0.0
14 17:15 NE 3 10.00 Fair CLR 98.6 37.4 12% 94 30.05 0.0
14 16:55 N 7 10.00 Fair CLR 98.6 37.4 12% 94 30.06 0.0
14 16:35 NE 9 10.00 Fair CLR 96.8 37.4 13% 92 30.06 0.0
14 16:15 NE 8 10.00 Fair CLR 96.8 37.4 13% 92 30.07 0.0
14 15:55 N 12 10.00 Fair CLR 98.6 39.2 13% 94 30.08 0.0
14 15:35 N 9 G 20 10.00 Fair CLR 96.8 39.2 13% 92 30.09 0.0
14 15:15 NE 12 10.00 Fair CLR 98.6 41 14% 94 30.1 0.0
14 14:55 NE 12 10.00 Fair CLR 96.8 41 14% 92 30.1 0.0
14 14:35 N 12 G 18 10.00 Fair CLR 95 39.2 14% 91 30.11 0.0
14 14:15 N 9 G 16 10.00 Fair CLR 96.8 39.2 13% 92 30.11 0.0
14 13:55 N 12 10.00 Partly Cloudy SCT120 96.8 39.2 13% 92 30.12 0.0
14 13:35 N 14 10.00 Partly Cloudy SCT120 95 41 15% 91 30.13 0.0
14 13:15 N 15 10.00 Fair CLR 95 42.8 16% 91 30.13 0.0
14 12:55 N 18 10.00 Partly Cloudy SCT120 96.8 42.8 16% 93 30.14 0.0
14 12:35 S 18 G 24 10.00 Fair CLR 98.6 39.2 13% 94 30.14 0.0
14 12:15 S 10 G 17 10.00 Fair CLR 96.8 37.4 13% 92 30.15 0.0
14 11:55 S 8 10.00 Fair CLR 95 37.4 13% 90 30.16 0.0
14 11:35 S 13 G 20 10.00 Fair CLR 95 37.4 13% 90 30.16 0.0
14 11:15 S 17 G 22 10.00 Fair CLR 95 37.4 13% 90 30.16 0.0
14 10:55 S 15 G 23 10.00 Fair CLR 95 37.4 13% 90 30.16 0.0
14 10:35 S 17 10.00 Fair CLR 95 39.2 14% 91 30.17 0.0
14 10:15 S 12 10.00 Fair CLR 89.6 39.2 17% 86 30.17 0.0
14 09:55 S 12 10.00 Fair CLR 91.4 37.4 15% 87 30.18 0.0
14 09:35 S 14 10.00 Fair CLR 91.4 37.4 15% 87 30.18 0.0
14 09:15 S 15 10.00 Fair CLR 89.6 39.2 17% 86 30.18 0.0
14 08:55 S 16 10.00 Fair CLR 87.8 37.4 17% 84 30.18 0.0
14 08:35 S 9 10.00 Fair CLR 86 37.4 18% 83 30.18 0.0
14 08:15 S 8 10.00 Fair CLR 82.4 39.2 21% 80 30.17 0.0
14 07:55 SW 5 10.00 Fair CLR 80.6 39.2 23% 79 30.17 0.0
14 07:35 SW 7 10.00 Fair CLR 78.8 39.2 24% 78 30.17 0.0
14 07:15 SW 13 10.00 Fair CLR 80.6 37.4 21% 79 30.16 0.0
14 06:55 S 12 10.00 Fair CLR 77 37.4 24% 77 30.16 0.0
14 06:35 S 9 10.00 Fair CLR 77 37.4 24% 77 30.15 0.0
14 06:15 NW 8 10.00 Fair CLR 73.4 37.4 27% 30.15 0.0
14 05:55 W 3 10.00 Thunderstorm in Vicinity CLR 73.4 37.4 27% 30.15 0.0
14 05:35 S 8 10.00 Fair CLR 73.4 37.4 27% 30.15 0.0
14 05:15 SW 8 10.00 Fair CLR 77 37.4 24% 77 30.15 0.0
14 04:55 S 10 10.00 Fair CLR 78.8 37.4 23% 78 30.15 0.0
14 04:35 S 6 10.00 Fair CLR 75.2 37.4 25% 77 30.14 0.0
14 04:15 S 6 10.00 Fair CLR 77 37.4 24% 77 30.14 0.0
14 03:55 SW 9 10.00 Fair CLR 73.4 37.4 27% 30.13 0.0
14 03:35 SE 5 10.00 Fair CLR 78.8 41 26% 78 30.13 0.0
14 03:15 SE 9 10.00 Fair CLR 78.8 41 26% 78 30.13 0.0
14 02:55 SE 5 10.00 Fair CLR 80.6 39.2 23% 79 30.13 0.0
14 02:35 Calm 10.00 Fair CLR 82.4 37.4 20% 80 30.15 0.0
14 02:15 S 8 10.00 Fair CLR 80.6 37.4 21% 79 30.17 0.0
14 01:55 S 7 10.00 Fair CLR 78.8 39.2 24% 78 30.17 0.0
14 01:35 Calm 10.00 Fair CLR 80.6 41 24% 79 30.17 0.0
14 01:15 SE 5 10.00 Fair CLR 82.4 37.4 20% 80 30.17 0.0
14 00:55 S 7 10.00 Fair CLR 86 35.6 17% 83 30.17 0.0
14 00:35 S 10 10.00 Fair CLR 87.8 35.6 16% 84 30.16 0.0
14 00:15 SW 10 10.00 Partly Cloudy SCT120 87.8 35.6 16% 84 30.15 0.0
13 23:55 NE 3 G 14 10.00 Mostly Cloudy SCT070 SCT080 BKN110 91.4 35.6 14% 87 30.15 0.0
13 23:35 E 15 G 25 10.00 Partly Cloudy SCT095 SCT110 89.6 35.6 15% 86 30.15 0.0
13 23:15 S 18 10.00 Fair CLR 91.4 33.8 13% 87 30.14 0.0
13 22:55 S 3 10.00 Fair CLR 87.8 35.6 16% 84 30.13 0.0
13 22:35 S 9 10.00 Fair CLR 89.6 35.6 15% 86 30.13 0.0
13 22:15 S 8 10.00 Fair CLR 86 35.6 17% 83 30.12 0.0
13 21:55 S 9 10.00 Fair CLR 87.8 35.6 16% 84 30.11 0.0
13 21:35 SW 8 10.00 Fair CLR 87.8 35.6 16% 84 30.11 0.0
13 21:15 S 9 10.00 Fair CLR 89.6 35.6 15% 86 30.1 0.0
13 20:55 S 16 10.00 Fair CLR 91.4 35.6 14% 87 30.1 0.0
13 20:35 SW 14 G 17 10.00 Fair CLR 91.4 35.6 14% 87 30.09 0.0
13 20:15 Calm 10.00 Fair CLR 93.2 37.4 14% 89 30.09 0.0
13 19:55 Calm 10.00 Fair CLR 95 37.4 13% 90 30.07 0.0
13 19:35 N 7 10.00 Fair CLR 96.8 39.2 13% 92 30.07 0.0
13 19:15 N 8 10.00 Fair CLR 96.8 37.4 13% 92 30.07 0.0
13 18:55 NE 9 10.00 Fair CLR 98.6 35.6 11% 94 30.07 0.0
13 18:35 N 12 10.00 Fair CLR 98.6 37.4 12% 94 30.07 0.0
13 18:15 N 9 10.00 Fair CLR 98.6 35.6 11% 94 30.07 0.0
13 17:55 N 12 G 17 10.00 Fair CLR 98.6 35.6 11% 94 30.07 0.0
13 17:35 N 7 10.00 Fair CLR 98.6 35.6 11% 94 30.07 0.0
13 17:15 N 14 G 17 10.00 Fair CLR 98.6 35.6 11% 94 30.07 0.0
13 16:55 NE 18 10.00 Fair CLR 98.6 35.6 11% 94 30.08 0.0
13 16:35 N 16 10.00 Fair CLR 98.6 37.4 12% 94 30.08 0.0
13 16:15 N 16 10.00 Fair CLR 98.6 41 14% 94 30.09 0.0
13 15:55 N 17 G 21 10.00 Fair CLR 98.6 39.2 13% 94 30.09 0.0
13 15:35 N 16 G 20 10.00 Fair CLR 98.6 35.6 11% 94 30.1 0.0
13 15:15 N 13 10.00 Fair CLR 98.6 37.4 12% 94 30.1 0.0
13 14:55 NE 15 G 20 10.00 Fair CLR 96.8 41 14% 92 30.11 0.0
13 14:35 N 18 G 22 10.00 Fair CLR 91.4 41 17% 87 30.11 0.0
13 14:15 N 15 10.00 Fair CLR 95 41 15% 91 30.14 0.0
13 13:55 NE 6 10.00 Fair CLR 91.4 44.6 20% 88 30.15 0.0
13 13:35 N 8 10.00 Fair CLR 95 39.2 14% 91 30.14 0.0
13 13:15 NE 8 10.00 Fair CLR 95 35.6 12% 90 30.14 0.0
13 12:55 NE 10 10.00 Fair CLR 93.2 37.4 14% 89 30.14 0.0
13 12:35 N 9 10.00 Fair CLR 93.2 37.4 14% 89 30.14 0.0
13 12:15 N 9 10.00 Fair CLR 91.4 39.2 16% 87 30.14 0.0
13 11:55 N 8 10.00 Fair CLR 91.4 35.6 14% 87 30.14 0.0
13 11:35 N 7 10.00 Fair CLR 91.4 37.4 15% 87 30.14 0.0
13 11:15 N 7 10.00 Fair CLR 91.4 41 17% 87 30.13 0.0
13 10:55 NE 7 10.00 Fair CLR 89.6 41 18% 86 30.14 0.0
13 10:35 NE 6 10.00 Fair CLR 87.8 42.8 21% 84 30.14 0.0
13 10:15 N 9 10.00 Fair CLR 86 46.4 25% 83 30.13 0.0
13 09:55 N 7 10.00 Fair CLR 87.8 33.8 15% 84 30.13 0.0
13 09:35 NW 9 10.00 Fair CLR 91.4 35.6 14% 87 30.13 0.0
13 09:15 SW 8 10.00 Fair CLR 91.4 32 12% 87 30.12 0.0
13 08:55 S 5 G 10 10.00 Fair CLR 89.6 30.2 12% 86 30.13 0.0
13 08:35 S 16 10.00 Fair CLR 87.8 30.2 13% 84 30.13 0.0
13 08:15 S 6 G 16 10.00 Fair CLR 86 30.2 13% 83 30.13 0.0
13 07:55 S 13 10.00 Fair CLR 82.4 28.4 14% 80 30.12 0.0
13 07:35 S 13 10.00 Fair CLR 80.6 28.4 15% 79 30.12 0.0
13 07:15 S 9 10.00 Fair CLR 77 26.6 15% 77 30.11 0.0
13 06:55 Calm 10.00 Fair CLR 75.2 30.2 19% 76 30.11 0.0
13 06:35 S 6 10.00 Fair CLR 78.8 26.6 15% 78 30.1 0.0
13 06:15 S 10 10.00 Fair CLR 77 26.6 15% 77 30.1 0.0
13 05:55 S 13 10.00 Fair CLR 75.2 26.6 16% 76 30.1 0.0
13 05:35 S 9 10.00 Fair CLR 71.6 26.6 19% 30.1 0.0
13 05:15 S 6 10.00 Fair CLR 75.2 26.6 16% 76 30.09 0.0
13 04:55 S 13 10.00 Fair CLR 77 26.6 15% 77 30.09 0.0
13 04:35 Calm 10.00 Fair CLR 73.4 28.4 19% 30.09 0.0
13 04:15 S 7 10.00 Fair CLR 75.2 26.6 16% 76 30.09 0.0
13 03:55 SW 6 10.00 Fair CLR 73.4 28.4 19% 30.08 0.0
13 03:35 SW 8 10.00 Fair CLR 69.8 30.2 23% 30.08 0.0
13 03:15 SW 7 10.00 Fair CLR 75.2 26.6 16% 76 30.08 0.0
13 02:55 SW 5 10.00 Fair CLR 77 26.6 15% 77 30.08 0.0
13 02:35 S 14 10.00 Fair CLR 80.6 26.6 14% 79 30.07 0.0
13 02:15 S 14 10.00 Fair CLR 78.8 28.4 16% 78 30.08 0.0
13 01:55 S 9 10.00 Fair CLR 77 28.4 17% 77 30.07 0.0
13 01:35 S 8 10.00 Fair CLR 73.4 28.4 19% 30.07 0.0
13 01:15 S 8 10.00 Fair CLR 77 28.4 17% 77 30.07 0.0
13 00:55 S 7 10.00 Fair CLR 78.8 28.4 16% 78 30.08 0.0
13 00:35 S 12 10.00 Fair CLR 78.8 28.4 16% 78 30.08 0.0
13 00:15 S 9 10.00 Fair CLR 78.8 28.4 16% 78 30.08 0.0
12 23:55 S 7 10.00 Fair CLR 75.2 30.2 19% 76 30.08 0.0
12 23:35 S 9 10.00 Fair CLR 71.6 32 23% 30.08 0.0
12 23:15 S 8 10.00 Fair CLR 73.4 33.8 23% 30.08 0.0
12 22:55 S 7 10.00 Fair CLR 77 30.2 18% 77 30.08 0.0
12 22:35 S 9 10.00 Fair CLR 75.2 32 21% 76 30.07 0.0
12 22:15 S 8 10.00 Fair CLR 77 32 19% 77 30.07 0.0
12 21:55 S 8 7.00 Fair CLR 77 32 19% 77 30.06 0.0
12 21:35 S 7 10.00 Fair CLR 78.8 32 18% 78 30.06 0.0
12 21:15 S 5 10.00 Fair CLR 86 30.2 13% 83 30.06 0.0
12 20:55 SW 5 10.00 Fair CLR 80.6 35.6 20% 79 30.05 0.0
12 20:35 SW 5 10.00 Fair CLR 87.8 41 19% 84 30.05 0.0
12 20:15 Calm 10.00 Fair CLR 91.4 33.8 13% 87 30.05 0.0
12 19:55 N 5 10.00 Fair CLR 91.4 33.8 13% 87 30.04 0.0
12 19:35 N 7 10.00 Fair CLR 95 32 11% 90 30.04 0.0
12 19:15 N 9 10.00 Fair CLR 98.6 30.2 9% 93 30.04 0.0
12 18:55 N 9 10.00 Fair CLR 98.6 28.4 8% 93 30.04 0.0
12 18:35 N 13 10.00 Fair CLR 98.6 32 10% 93 30.04 0.0
12 18:15 N 12 10.00 Fair CLR 100.4 30.2 8% 95 30.04 0.0
12 17:55 N 12 10.00 Fair CLR 100.4 32 9% 95 30.04 0.0
12 17:35 N 14 10.00 Fair CLR 98.6 33.8 10% 93 30.04 0.0
12 17:15 N 14 10.00 Fair CLR 100.4 32 9% 95 30.04 0.0
12 16:55 N 14 10.00 Fair CLR 100.4 30.2 8% 95 30.05 0.0
12 16:35 N 15 G 20 10.00 Fair CLR 100.4 32 9% 95 30.06 0.0
12 16:15 N 13 10.00 Fair CLR 100.4 30.2 8% 95 30.06 0.0
12 15:55 N 13 10.00 Fair CLR 100.4 35.6 10% 95 30.06 0.0
12 15:35 N 15 10.00 Fair CLR 100.4 32 9% 95 30.07 0.0
12 15:15 N 13 10.00 Fair CLR 100.4 32 9% 95 30.07 0.0
12 14:55 N 6 10.00 Fair CLR 96.8 32 10% 92 30.08 0.0
12 14:35 N 5 10.00 Fair CLR 95 32 11% 90 30.09 0.0
12 14:15 N 5 10.00 Fair CLR 95 32 11% 90 30.1 0.0
12 13:55 N 9 10.00 Fair CLR 96.8 32 10% 92 30.1 0.0
Date Time (mdt) Wind (mph) Vis. (mi.) Weather Sky Cond. Air Dwpt Max. Min. Relative Humidity Wind Chill (°F) Heat Index (°F) altimeter (in) sea level (mb) 1 hr 3 hr 6 hr
6 hour
Temperature (ºF) Pressure Precipitation (in)